Regional Weather Roundup
Issued by NWS

Home | Current Version | Previous Version | Graphics & Text | Print | Product List | Glossary On
Versions: 1 2 3 4 5 6 7 8 9 10 11 12 13 14 15 16 17 18 19 20 21 22 23 24 25 26 27 28 29 30 31 32 33 34 35 36 37 38 39 40 41 42 43 44 45 46 47 48 49 50
000
ASUS43 KFSD 291210
RWRSD

WEATHER ROUNDUP FOR SOUTH DAKOTA
NATIONAL WEATHER SERVICE SIOUX FALLS SD
700 AM CDT WED JUL 29 2015

NOTE: "FAIR" INDICATES FEW OR NO CLOUDS BELOW 12,000 FEET WITH NO
SIGNIFICANT WEATHER AND/OR OBSTRUCTIONS TO VISIBILITY.


SDZ001>005-009-010-012>017-291300-
NORTHWEST AND NORTH CENTRAL SOUTH DAKOTA

CITY           SKY/WX    TMP DP  RH WIND       PRES   REMARKS
BUFFALO          N/A     51  39  63 W12       30.09R
FAITH            N/A     55  39  54 SW16      30.14R
MOBRIDGE       CLEAR     63  45  51 NW13G22   30.03R
$$

SDZ012>016-024>037-041>051-057-063-072>074-291300-
SOUTHWEST AND SOUTH CENTRAL SOUTH DAKOTA

CITY           SKY/WX    TMP DP  RH WIND       PRES   REMARKS
RAPID CTY ARPT CLEAR     52  41  66 W5        30.24R
PIERRE         CLEAR     62  44  51 W15       30.09S
CUSTER         CLEAR     43  33  68 NW6       30.34S
ELLSWORTH AFB  CLEAR     53  40  61 W9        30.22R
PHILIP         CLEAR     52  46  80 W9        30.17S
PINE RIDGE     CLEAR     41  38  89 CALM      30.27R
SPEARFISH      FAIR      59  36  41 W14       30.26R
WINNER         FAIR      62  43  49 SW12      30.17R
$$

SDZ004>011-016>023-039-040-291300-
NORTHEAST SOUTH DAKOTA

CITY           SKY/WX    TMP DP  RH WIND       PRES   REMARKS
ABERDEEN       CLEAR     58  48  69 SW12      29.99R
WATERTOWN      CLEAR     60  48  64 SW10      30.00R
BROOKINGS      CLEAR     57  46  67 SW9       30.08R
SISSETON         N/A     65  48  54 W23G30    29.91R
$$

SDZ017-020-022-023-036>040-048>070-291300-
SOUTHEAST SOUTH DAKOTA

CITY           SKY/WX    TMP DP  RH WIND       PRES   REMARKS
SIOUX FALLS    FAIR      60  51  72 VRB3      30.10R
HURON          CLEAR     59  48  67 SW12      30.06R
CHAMBERLAIN    CLEAR     61  47  62 W16       30.13S
MITCHELL       CLEAR     61  50  67 W12       30.10R
YANKTON        CLEAR     59  54  82 SW5       30.13R
$$

ABBREVIATIONS USED IN REMARKS
   TC - TEMPERATURE IN CELSIUS
  WCI - WIND CHILL INDEX
   HX - HEAT INDEX
  VSB - VISIBILITY



USA.gov is the U.S. government's official web portal to all federal, state and local government web resources and services.